Hourly Data Report for November 27, 2020

CARBERRY CS
MANITOBA
Current Station Operator: ECCC - MSC

49°54'20.900" N
99°21'26.800" W
383.50 m
5010547
71170
WZE

Download Data

Hourly Data (November 2020)
Hourly Data Report for November 27, 2020
TIME
LST
Temp Definition
°C
Dew Point Definition
°C
Rel Hum Definition
%
Precip. Amount Definition
mm

Wind Dir Definition
10's deg

Wind Spd Definition
km/h
Visibility Definition
km
Stn Press Definition
kPa
Hmdx Definition


Wind Chill Definition


Weather Definition


00:00 -8.9 -11.2 83 0.0 26 11   96.82   -14 LegendNANA
01:00 -8.3 -11.0 81 0.0 27 20   96.84   -16 LegendNANA
02:00 -9.3 -11.4 85 0.0 26 13   96.83   -15 LegendNANA
03:00 -9.8 -12.0 84 0.0 25 16   96.84   -17 LegendNANA
04:00 -9.7 -12.0 83 0.0 24 13   96.83   -16 LegendNANA
05:00 -9.4 -11.7 83 0.0 25 14   96.85   -16 LegendNANA
06:00 -8.4 -11.2 80 0.0 22 8   96.76   -13 LegendNANA
07:00 -8.5 -10.3 87 0.0 22 9   96.70   -13 LegendNANA
08:00 -8.3 -9.9 89 0.0 22 8   96.64   -12 LegendNANA
09:00 -6.6 -8.8 85 0.0 20 11   96.61   -12 LegendNANA
10:00 -4.5 -7.2 82 0.0 20 19   96.46   -11 LegendNANA
11:00 -1.4 -5.6 73 0.0 22 19   96.42   -7 LegendNANA
12:00 1.3 -5.5 60 0.0 23 25   96.31     LegendNANA
13:00 2.9 -5.0 56 0.0 25 28   96.31     LegendNANA
14:00 3.4 -4.4 56 0.0 24 24   96.26     LegendNANA
15:00 4.4 -4.1 54 0.0 25 20   96.26     LegendNANA
16:00 4.0 -4.3 55 0.0 24 16   96.27     LegendNANA
17:00 2.3 -4.1 63 0.0 24 12   96.30     LegendNANA
18:00 1.7 -3.7 68 0.0 24 16   96.28     LegendNANA
19:00 1.1 -3.6 71 0.0 25 17   96.26     LegendNANA
20:00 0.6 -3.5 74 0.0 25 16   96.25     LegendNANA
21:00 -0.7 -3.7 80 0.0 26 15   96.25   -5 LegendNANA
22:00 -1.4 -3.8 84 0.0 25 11   96.27   -5 LegendNANA
23:00 -2.4 -4.1 88 0.0 26 19   96.23   -8 LegendNANA

Notes on Data Quality.

Legend

  • E = Estimated
  • M = Missing
  • NA = Not Available*
  • [empty] = Indicates an unobserved value
Date modified: